User: anonymous   Login
Location: Sternwarte Hubelmatt
(47.0367°N, 8.3053°E)
Time: 07:52:50
(UTC+01:00)
Language:

ISS - Orbit

View from above orbital plane
View from above orbital plane
View from above satellite
View from above satellite

Ground track
Ground track

The orbit data is extracted from the following two-line orbital elements,

1 25544U 98067A   22340.16220016  .00009979  00000-0  18408-3 0  9997
2 25544  51.6440 204.6429 0004427 131.1114  15.7657 15.49766333371850
Epoch (UTC): 06 December 2022 03:53:34
Eccentricity: 0.0004427
inclination: 51.6440°
perigee height: 414 km
apogee height: 420 km
right ascension of ascending node: 204.6429°
argument of perigee: 131.1114°
revolutions per day: 15.49766333
mean anomaly at epoch: 15.7657°
orbit number at epoch: 37185

The dashed part of the orbit path shows where the satellite is in the earth's shadow,  

DLR